This is the latest recevied weather packets stored in our database for station/object KC5AV. If no packets are shown the sender has not sent any weather packets the latest 1 day(s).
| Time | Temp. | Humidity | Pressure | Rain* | Wind** | Luminosity | Snow |
|---|---|---|---|---|---|---|---|
| 1778033373 | 25° C | 83% | 1007.8 hPa | 0 mm | - | 0 W/m² | - |
| 1778033071 | 25° C | 83% | 1007.9 hPa | 0 mm | - | 0 W/m² | - |
| 1778032768 | 25° C | 83% | 1007.6 hPa | 0 mm | - | 0 W/m² | - |
| 1778032466 | 25° C | 83% | 1007.5 hPa | 0 mm | - | 0 W/m² | - |
| 1778032162 | 25° C | 82% | 1007.4 hPa | 0 mm | - | 0 W/m² | - |
| 1778031859 | 25° C | 82% | 1007.5 hPa | 0 mm | - | 0 W/m² | - |
| 1778031556 | 25° C | 81% | 1007.6 hPa | 0 mm | - | 0 W/m² | - |
| 1778031254 | 25.56° C | 81% | 1007.4 hPa | 0 mm | - | 0 W/m² | - |
| 1778030646 | 25.56° C | 80% | 1007.3 hPa | 0 mm | - | 0 W/m² | - |
| 1778029737 | 26.11° C | 78% | 1007.5 hPa | 0 mm | - | 1 W/m² | - |
| 1778029436 | 26.11° C | 78% | 1007.1 hPa | 0 mm | - | 2 W/m² | - |
| 1778029132 | 26.11° C | 78% | 1007 hPa | 0 mm | - | 3 W/m² | - |
| 1778028829 | 26.67° C | 77% | 1006.8 hPa | 0 mm | - | 6 W/m² | - |
| 1778028525 | 26.67° C | 77% | 1006.9 hPa | 0 mm | - | 10 W/m² | - |
| 1778028224 | 26.67° C | 76% | 1006.8 hPa | 0 mm | - | 14 W/m² | - |
| 1778027919 | 26.67° C | 76% | 1006.3 hPa | 0 mm | - | 19 W/m² | - |
| 1778027615 | 27.22° C | 75% | 1006.3 hPa | 0 mm | - | 20 W/m² | - |
| 1778027312 | 27.22° C | 74% | 1006.3 hPa | 0 mm | - | 28 W/m² | - |
| 1778026704 | 27.78° C | 73% | 1006.5 hPa | 0 mm | - | 39 W/m² | - |
| 1778024887 | 28.89° C | 69% | 1006.8 hPa | 0 mm | - | 85 W/m² | - |
| 1778023676 | 28.89° C | 68% | 1006.4 hPa | 0 mm | - | 69 W/m² | - |
| 1778022769 | 29.44° C | 67% | 1006.3 hPa | 0 mm | - | 151 W/m² | - |
| 1778022163 | 29.44° C | 67% | 1006.3 hPa | 0 mm | - | 164 W/m² | - |
| 1778020950 | 29.44° C | 66% | 1006.3 hPa | 0 mm | - | 95 W/m² | - |
| 1778019433 | 29.44° C | 66% | 1006.3 hPa | 0 mm | - | 156 W/m² | - |
* Rain latest hour (hover to see other rain measurements)
** Current wind speed in m/s (hover to see current wind gust speed)